This is the latest recevied weather packets stored in our database for station/object IR3AS. If no packets are shown the sender has not sent any weather packets the latest 10 day(s).
| Time | Temp. | Humidity | Pressure | Rain* | Wind** | Luminosity | Snow |
|---|---|---|---|---|---|---|---|
| 1777615264 | 1.11° C | 82% | 859.6 hPa | 0 mm | - | - | - |
| 1777614964 | 1.11° C | 83% | 859.8 hPa | 0 mm | - | - | - |
| 1777614664 | 0.56° C | 84% | 859.6 hPa | 0 mm | - | - | - |
| 1777614364 | 0.56° C | 85% | 859.3 hPa | 0 mm | - | - | - |
| 1777614064 | 0° C | 85% | 859 hPa | 0 mm | - | - | - |
| 1777613764 | 0° C | 87% | 859.1 hPa | 0 mm | - | - | - |
| 1777613464 | 0° C | 87% | 859.1 hPa | 0 mm | - | - | - |
| 1777613164 | -0.56° C | 88% | 859.3 hPa | 0 mm | - | - | - |
| 1777612864 | -0.56° C | 89% | 859.1 hPa | 0 mm | - | - | - |
| 1777612565 | -1.11° C | 89% | 858.9 hPa | 0 mm | - | - | - |
| 1777612264 | -1.11° C | 90% | 858.9 hPa | 0 mm | - | - | - |
| 1777611964 | -1.67° C | 90% | 858.8 hPa | 0 mm | - | - | - |
| 1777611664 | -1.67° C | 90% | 858.9 hPa | 0 mm | - | - | - |
| 1777611364 | -2.22° C | 91% | 858.5 hPa | 0 mm | - | - | - |
| 1777611064 | -2.22° C | 91% | 858.6 hPa | 0 mm | - | - | - |
| 1777610764 | -1.67° C | 91% | 858.4 hPa | 0 mm | - | - | - |
| 1777610464 | -1.67° C | 91% | 858.5 hPa | 0 mm | - | - | - |
| 1777610164 | -1.67° C | 91% | 858.5 hPa | 0 mm | - | - | - |
| 1777609864 | -1.67° C | 91% | 858.5 hPa | 0 mm | - | - | - |
| 1777609564 | -1.67° C | 92% | 858.4 hPa | 0 mm | - | - | - |
| 1777609264 | -2.22° C | 92% | 858.8 hPa | 0 mm | - | - | - |
| 1777608964 | -1.67° C | 92% | 858.7 hPa | 0 mm | - | - | - |
| 1777608664 | -1.67° C | 92% | 858.7 hPa | 0 mm | - | - | - |
| 1777608364 | -1.67° C | 91% | 858.6 hPa | 0 mm | - | - | - |
| 1777608065 | -1.67° C | 91% | 858.7 hPa | 0 mm | - | - | - |
* Rain latest hour (hover to see other rain measurements)
** Current wind speed in m/s (hover to see current wind gust speed)